Moose Lake, MN

3:33 AM CDT on August 24, 2016 (GMT -0500)
Moose Lake-Carlton County

Weather History for KMZH - November, 2012

Change the Weather History Date:

Saturday, November 3, 2012

  Actual Average Record
Temperature  
Mean Temperature 34 °F -  
Max Temperature 39 °F 43 °F 71 °F (1978)
Min Temperature 28 °F 26 °F -1 °F (1951)
Degree Days  
Heating Degree Days 30    
Moisture  
Dew Point 21 °F    
Average Humidity 62    
Maximum Humidity 80    
Minimum Humidity 45    
Precipitation  
Precipitation 0.00 in - - ()
Sea Level Pressure  
Sea Level Pressure 30.20 in    
Wind  
Wind Speed 3 mph (ENE)    
Max Wind Speed 10 mph    
Max Gust Speed -    
Visibility 10 miles    
Events Snow    
Averages and records for this station are not official NWS values.
T = Trace of Precipitation, MM = Missing Value Source: NWS Daily Summary

Daily Weather History Graph

Daily Weather History Graph

Search for Another Location

Airport or City:

Trip Planner

Search our weather history database for the weather conditions in past years. The results will help you decide how hot, cold, wet, or windy it might be!

Date:

Astronomy

Nov. 03, 2012 Rise Set
Actual Time 7:56 AM CDT 5:52 PM CDT
Civil Twilight 7:24 AM CDT 6:24 PM CDT
Nautical Twilight 6:48 AM CDT 6:59 PM CDT
Astronomical Twilight 6:13 AM CDT 7:35 PM CDT
Moon 9:28 PM CDT (11/3) 12:06 PM CDT (11/3)
Length of Visible Light 10h 59m
Length of Day
9h 56m
Waning Gibbous, 80% of the Moon is Illuminated
Nov 3
Waning Gibbous
Nov 6
Last Quarter
Nov 13
New
Nov 20
First Quarter
Nov 28
Full

Hourly Weather History & Observations

Time (CDT) Temp. Windchill Dew Point Humidity Pressure Visibility Wind Dir Wind Speed Gust Speed Precip Events Conditions
12:10 AM 32.0 °F 28.7 °F 21.2 °F 64% 30.18 in 10.0 mi NE 3.5 mph - N/A   Overcast
12:30 AM 32.0 °F - 21.2 °F 64% 30.18 in 10.0 mi Calm Calm - N/A   Overcast
12:50 AM 32.0 °F - 21.2 °F 64% 30.19 in 10.0 mi Calm Calm - N/A   Overcast
1:10 AM 32.0 °F - 19.4 °F 60% 30.19 in 10.0 mi Calm Calm - N/A   Overcast
1:30 AM 32.0 °F 28.7 °F 19.4 °F 60% 30.19 in 10.0 mi NE 3.5 mph - N/A   Overcast
1:50 AM 32.0 °F 28.7 °F 17.6 °F 55% 30.20 in 10.0 mi NE 3.5 mph - N/A   Overcast
2:10 AM 32.0 °F 27.5 °F 19.4 °F 60% 30.19 in 10.0 mi NE 4.6 mph - N/A   Overcast
2:30 AM 32.0 °F 25.6 °F 19.4 °F 60% 30.19 in 10.0 mi NE 6.9 mph - N/A   Overcast
2:50 AM 32.0 °F 24.8 °F 19.4 °F 60% 30.18 in 10.0 mi ENE 8.1 mph - N/A   Overcast
3:10 AM 30.2 °F 24.3 °F 19.4 °F 64% 30.18 in 10.0 mi ENE 5.8 mph - N/A   Overcast
3:30 AM 30.2 °F 22.6 °F 19.4 °F 64% 30.17 in 3.0 mi ENE 8.1 mph - N/A Snow Light Snow
3:50 AM 30.2 °F 21.3 °F 21.2 °F 69% 30.16 in 1.5 mi ENE 10.4 mph - N/A Snow Light Snow
4:10 AM 30.2 °F - 21.2 °F 69% 30.18 in 2.5 mi Calm Calm - N/A Snow Light Snow
4:30 AM 30.2 °F - 21.2 °F 69% 30.18 in 10.0 mi Calm Calm - N/A   Mostly Cloudy
4:50 AM 30.2 °F - 21.2 °F 69% 30.19 in 10.0 mi Calm Calm - N/A   Scattered Clouds
5:10 AM 30.2 °F - 21.2 °F 69% 30.19 in 10.0 mi Calm Calm - N/A   Scattered Clouds
5:30 AM 30.2 °F - 21.2 °F 69% 30.19 in 10.0 mi Calm Calm - N/A   Mostly Cloudy
5:50 AM 30.2 °F 26.7 °F 21.2 °F 69% 30.19 in 10.0 mi ENE 3.5 mph - N/A   Overcast
6:10 AM 30.2 °F 26.7 °F 21.2 °F 69% 30.20 in 10.0 mi NE 3.5 mph - N/A   Overcast
6:30 AM 30.2 °F 26.7 °F 21.2 °F 69% 30.20 in 10.0 mi NE 3.5 mph - N/A   Overcast
6:50 AM 30.2 °F 26.7 °F 21.2 °F 69% 30.20 in 10.0 mi ENE 3.5 mph - N/A   Overcast
7:10 AM 30.2 °F - 21.2 °F 69% 30.19 in 10.0 mi Calm Calm - N/A   Overcast
7:30 AM 30.2 °F 26.7 °F 21.2 °F 69% 30.19 in 10.0 mi ENE 3.5 mph - N/A   Overcast
7:50 AM 30.2 °F 24.3 °F 21.2 °F 69% 30.18 in 10.0 mi East 5.8 mph - N/A   Overcast
8:10 AM 30.2 °F 26.7 °F 19.4 °F 64% 30.19 in 10.0 mi ESE 3.5 mph - N/A   Overcast
8:30 AM 30.2 °F 24.3 °F 19.4 °F 64% 30.19 in 10.0 mi East 5.8 mph - N/A   Mostly Cloudy
8:50 AM 30.2 °F 25.4 °F 21.2 °F 69% 30.20 in 10.0 mi East 4.6 mph - N/A   Mostly Cloudy
9:10 AM 32.0 °F - 19.4 °F 60% 30.21 in 10.0 mi Calm Calm - N/A   Overcast
9:30 AM 32.0 °F - 19.4 °F 60% 30.21 in 10.0 mi Calm Calm - N/A   Overcast
9:50 AM 32.0 °F 27.5 °F 21.2 °F 64% 30.21 in 10.0 mi NE 4.6 mph - N/A   Overcast
10:10 AM 32.0 °F - 21.2 °F 64% 30.22 in 10.0 mi Calm Calm - N/A   Overcast
10:30 AM 32.0 °F 27.5 °F 21.2 °F 64% 30.21 in 10.0 mi NE 4.6 mph - N/A   Overcast
10:50 AM 32.0 °F 28.7 °F 21.2 °F 64% 30.22 in 10.0 mi NE 3.5 mph - N/A   Overcast
11:10 AM 32.0 °F - 21.2 °F 64% 30.22 in 10.0 mi Calm Calm - N/A   Overcast
11:30 AM 33.8 °F - 21.2 °F 60% 30.22 in 10.0 mi Calm Calm - N/A   Overcast
11:50 AM 33.8 °F 30.8 °F 21.2 °F 60% 30.22 in 10.0 mi ENE 3.5 mph - N/A   Overcast
12:10 PM 33.8 °F 30.8 °F 21.2 °F 60% 30.22 in 10.0 mi East 3.5 mph - N/A   Overcast
12:30 PM 33.8 °F - 21.2 °F 60% 30.22 in 10.0 mi Calm Calm - N/A   Overcast
12:50 PM 33.8 °F - 21.2 °F 60% 30.21 in 10.0 mi Calm Calm - N/A   Overcast
1:10 PM 35.6 °F - 19.4 °F 52% 30.21 in 10.0 mi Calm Calm - N/A   Overcast
1:30 PM 35.6 °F - 19.4 °F 52% 30.21 in 10.0 mi Calm Calm - N/A   Overcast
1:50 PM 37.4 °F 34.9 °F 19.4 °F 48% 30.21 in 10.0 mi East 3.5 mph - N/A   Overcast
2:10 PM 37.4 °F 33.8 °F 17.6 °F 45% 30.20 in 10.0 mi East 4.6 mph - N/A   Overcast
2:30 PM 37.4 °F 34.9 °F 19.4 °F 48% 30.20 in 10.0 mi East 3.5 mph - N/A   Scattered Clouds
2:50 PM 39.2 °F 37.0 °F 19.4 °F 45% 30.20 in 10.0 mi SE 3.5 mph - N/A   Clear
3:10 PM 37.4 °F 34.9 °F 17.6 °F 45% 30.19 in 10.0 mi ENE 3.5 mph - N/A   Clear
3:30 PM 37.4 °F 34.9 °F 17.6 °F 45% 30.19 in 10.0 mi East 3.5 mph - N/A   Clear
3:50 PM 37.4 °F 34.9 °F 17.6 °F 45% 30.19 in 10.0 mi East 3.5 mph - N/A   Scattered Clouds
4:10 PM 37.4 °F - 19.4 °F 48% 30.19 in 10.0 mi Calm Calm - N/A   Scattered Clouds
4:30 PM 37.4 °F - 17.6 °F 45% 30.19 in 10.0 mi Calm Calm - N/A   Clear
4:50 PM 37.4 °F - 19.4 °F 48% 30.19 in 10.0 mi Calm Calm - N/A   Clear
5:10 PM 37.4 °F - 19.4 °F 48% 30.19 in 10.0 mi Calm Calm - N/A   Clear
5:30 PM 35.6 °F 32.8 °F 19.4 °F 52% 30.19 in 10.0 mi ENE 3.5 mph - N/A   Clear
5:50 PM 33.8 °F 30.8 °F 19.4 °F 56% 30.19 in 10.0 mi ENE 3.5 mph - N/A   Mostly Cloudy
6:10 PM 33.8 °F 30.8 °F 19.4 °F 56% 30.19 in 10.0 mi ENE 3.5 mph - N/A   Scattered Clouds
6:30 PM 32.0 °F - 19.4 °F 60% 30.20 in 10.0 mi Calm Calm - N/A   Clear
6:50 PM 32.0 °F - 19.4 °F 60% 30.20 in 10.0 mi Calm Calm - N/A   Clear
7:10 PM 32.0 °F - 19.4 °F 60% 30.21 in 10.0 mi Calm Calm - N/A   Scattered Clouds
7:30 PM 32.0 °F 28.7 °F 21.2 °F 64% 30.21 in 10.0 mi ENE 3.5 mph - N/A   Scattered Clouds
7:50 PM 32.0 °F 28.7 °F 23.0 °F 69% 30.21 in 10.0 mi ENE 3.5 mph - N/A   Clear
8:10 PM 32.0 °F 28.7 °F 23.0 °F 69% 30.22 in 10.0 mi NE 3.5 mph - N/A   Scattered Clouds
8:30 PM 32.0 °F 28.7 °F 23.0 °F 69% 30.22 in 10.0 mi NE 3.5 mph - N/A   Scattered Clouds
8:50 PM 30.2 °F 26.7 °F 23.0 °F 75% 30.22 in 10.0 mi ENE 3.5 mph - N/A   Mostly Cloudy
9:10 PM 30.2 °F 26.7 °F 23.0 °F 75% 30.22 in 10.0 mi ENE 3.5 mph - N/A   Mostly Cloudy
9:30 PM 30.2 °F 25.4 °F 23.0 °F 75% 30.22 in 10.0 mi NE 4.6 mph - N/A   Mostly Cloudy
9:50 PM 30.2 °F 26.7 °F 23.0 °F 75% 30.23 in 10.0 mi NE 3.5 mph - N/A   Scattered Clouds
10:10 PM 30.2 °F 26.7 °F 23.0 °F 75% 30.23 in 10.0 mi ENE 3.5 mph - N/A   Clear
10:30 PM 30.2 °F 26.7 °F 23.0 °F 75% 30.23 in 10.0 mi ENE 3.5 mph - N/A   Clear
10:50 PM 30.2 °F - 23.0 °F 75% 30.23 in 10.0 mi Calm Calm - N/A   Clear
11:10 PM 30.2 °F - 23.0 °F 75% 30.23 in 10.0 mi Calm Calm - N/A   Clear
11:30 PM 30.2 °F - 23.0 °F 75% 30.23 in 10.0 mi Calm Calm - N/A   Clear
11:50 PM 28.4 °F - 23.0 °F 80% 30.23 in 10.0 mi Calm Calm - N/A   Clear